Location: Pardubice
(50.0330°N, 15.7830°E)
Time: 09:44:28
(UTC+02:00)

Tiros 1 - Visible Passes

Search period start: 07 October 2024 00:00
Search period end: 17 October 2024 00:00
Orbit: 623 x 655 km, 48.4° (Epoch: 06 October)

Date Brightness Start Highest point End Pass type
(mag) Time Alt. Az. Time Alt. Az. Time Alt. Az.
10 Oct 9.7 06:15:39 10° S 06:18:27 16° SE 06:21:14 10° ESE visible
11 Oct 9.1 06:37:25 10° SSW 06:41:20 27° SSE 06:45:15 10° E visible
12 Oct 9.7 05:20:48 10° SSE 05:23:11 14° SE 05:25:33 10° ESE visible
13 Oct 9.0 05:42:14 10° SSW 05:46:01 24° SE 05:49:46 10° E visible
14 Oct 9.7 04:26:48 11° SSE 04:27:53 12° SE 04:29:39 10° ESE visible
14 Oct 8.3 06:04:38 10° SW 06:08:59 38° SSE 06:13:18 10° E visible
15 Oct 9.0 04:49:27 20° SSE 04:50:40 22° SE 04:54:13 10° E visible
15 Oct 7.7 06:27:29 10° WSW 06:32:04 55° SSE 06:36:37 10° E visible
16 Oct 8.3 05:11:59 27° S 05:13:34 35° SSE 05:17:49 10° E visible
